Flag for U.S.A. Weather past 2 weeks in Mesquite, Texas, U.S.A.

Now
81 °F

Sunny.


Feels Like: 84 °F
Forecast: 74 / 93 °F
Wind: No wind

Location: Mesquite Metro Airport

Current Time: Aug 27, 2014 at 10:06:21 AM

Latest Report: Aug 27, 2014 at 8:50 AM


Visibility: 10 mi

Pressure: 30.06 "Hg

Humidity: 70%

Dew point: 70 °F

Location of MesquiteLocation

Historic Weather in Mesquite — Graph

°F

Mesquite temperature yesterday

Maximum temperature yesterday: 97 °F (at 3:47 PM)
Minimum temperature yesterday: 75 °F (at 6:50 AM)
Average temperature yesterday: 83 °F

Past Weeks' High & Low Weather Summary

 TemperatureHumidityPressure
High102 °F (Aug 16, 4:59 PM)100% (Aug 17, 10:50 AM)30.12 "Hg (Aug 17, 10:50 AM)
Low64 °F (Aug 14, 6:50 AM)22% (Aug 22, 4:50 PM)29.85 "Hg (Aug 19, 5:50 PM)
Average81 °F65%29.97 "Hg
* Reported Aug 12 8:50 AM — Aug 27 8:50 AM, Mesquite, Weather by CustomWeather, © 2014

Note: Actual official high and low records may vary slightly from our data, if they occured in-between our weather recording intervals... More about our weather records

Advertising

Mesquite weather history for previous 24 hours

 ConditionsComfort  
Time TempWeatherWind HumidityBarometerVisibility
8:50 AM
Aug 27
81 °FSunny.No wind70%30.06 "Hg10 mi
7:50 AM73 °FClear.No wind94%30.05 "Hg10 mi
6:47 AM73 °FClear.No wind89%30.03 "Hg10 mi
5:35 AM73 °FClear.No wind89%30.02 "Hg10 mi
5:15 AM74 °FClear.No wind87%30.02 "Hg10 mi
4:55 AM74 °FClear.No wind87%30.02 "Hg10 mi
4:35 AM74 °FClear.No wind86%30.03 "Hg10 mi
4:15 AM74 °FClear.No wind85%30.02 "Hg10 mi
3:35 AM74 °FClear.No wind83%30.03 "Hg10 mi
3:15 AM76 °FClear.No wind80%30.03 "Hg10 mi
2:55 AM76 °FClear.No wind79%30.02 "Hg10 mi
2:35 AM77 °FClear.3 mph77%30.02 "Hg10 mi
2:15 AM77 °FClear.3 mph76%30.03 "Hg10 mi
1:55 AM78 °FClear.No wind73%30.03 "Hg10 mi
1:35 AM78 °FClear.No wind71%30.02 "Hg10 mi
1:15 AM78 °FClear.3 mph73%30.02 "Hg10 mi
12:55 AM79 °FClear.No wind69%30.03 "Hg10 mi
12:35 AM80 °FClear.No wind67%30.03 "Hg10 mi
12:15 AM81 °FClear.3 mph64%30.02 "Hg10 mi
11:55 PM
Aug 26
82 °FClear.3 mph63%30.03 "Hg10 mi
11:35 PM82 °FPassing clouds.6 mph61%30.02 "Hg10 mi
11:15 PM82 °FClear.5 mph60%30.02 "Hg10 mi
10:55 PM83 °FClear.5 mph59%30.02 "Hg10 mi
10:35 PM84 °FClear.5 mph55%30.01 "Hg10 mi
10:15 PM85 °FClear.6 mph53%30.01 "Hg10 mi
9:55 PM85 °FClear.7 mph53%30.00 "Hg10 mi
7:47 PM90 °FSunny.6 mph43%29.96 "Hg10 mi
5:47 PM95 °FScattered clouds.7 mph36%29.95 "Hg10 mi
4:50 PM97 °FScattered clouds.7 mph32%29.96 "Hg10 mi
3:47 PM97 °FScattered clouds.7 mph30%29.98 "Hg10 mi
2:50 PM95 °FScattered clouds.8 mph36%30.00 "Hg10 mi
1:50 PM93 °FScattered clouds.8 mph41%30.02 "Hg10 mi
12:50 PM90 °FPartly sunny.5 mph52%30.04 "Hg10 mi
11:50 AM90 °FPartly sunny.5 mph52%30.05 "Hg10 mi
10:50 AM90 °FSunny.3 mph52%30.05 "Hg10 mi
Weather by CustomWeather, © 2014

See weather overviewHow to use our weather pages